Time,TemperatureF,DewpointF,PressureIn,WindDirection,WindDirectionDegrees,WindSpeedMPH,WindSpeedGustMPH,Humidity,HourlyPrecipIn,Conditions,Clouds,dailyrainin,SolarRadiationWatts/m^2,SoftwareType,DateUTC
2013-01-26 00:01:00,35.0,34.0,-100.00,South,179,3.0,10.0,98,0.00,,,0.19,0.000000,,2013-01-26 07:01:00,
2013-01-26 00:12:00,35.0,34.0,-100.00,South,179,3.0,10.0,98,0.00,,,0.19,0.000000,,2013-01-26 07:12:00,
2013-01-26 00:21:00,35.0,34.0,-100.00,South,179,3.0,10.0,98,0.00,,,0.19,0.000000,,2013-01-26 07:21:00,
2013-01-26 00:33:00,35.0,34.0,-100.00,South,179,3.0,10.0,98,0.00,,,0.19,0.000000,,2013-01-26 07:33:00,
2013-01-26 01:02:00,35.0,33.0,-100.00,East,96,5.0,12.0,94,0.01,,,0.20,0.000000,,2013-01-26 08:02:00,
2013-01-26 01:11:00,35.0,33.0,-100.00,East,96,5.0,12.0,94,0.01,,,0.20,0.000000,,2013-01-26 08:11:00,
2013-01-26 01:21:00,35.0,33.0,-100.00,East,96,5.0,12.0,94,0.01,,,0.20,0.000000,,2013-01-26 08:21:00,
2013-01-26 01:31:00,35.0,33.0,-100.00,East,96,5.0,12.0,94,0.01,,,0.20,0.000000,,2013-01-26 08:31:00,
2013-01-26 01:54:00,36.0,33.0,-100.00,ESE,120,5.0,13.0,89,0.00,,,0.20,0.000000,,2013-01-26 08:54:00,
2013-01-26 02:02:00,36.0,33.0,-100.00,ESE,120,5.0,13.0,89,0.00,,,0.20,0.000000,,2013-01-26 09:02:00,
2013-01-26 02:11:00,36.0,33.0,-100.00,ESE,120,5.0,13.0,89,0.00,,,0.20,0.000000,,2013-01-26 09:11:00,
2013-01-26 02:22:00,36.0,33.0,-100.00,ESE,120,5.0,13.0,89,0.00,,,0.20,0.000000,,2013-01-26 09:22:00,
2013-01-26 02:31:00,36.0,33.0,-100.00,ESE,120,5.0,13.0,89,0.00,,,0.20,0.000000,,2013-01-26 09:31:00,
2013-01-26 02:52:00,36.0,33.0,-100.00,East,94,6.0,12.0,90,0.00,,,0.20,0.000000,,2013-01-26 09:52:00,
2013-01-26 03:01:00,36.0,33.0,-100.00,East,94,6.0,12.0,90,0.00,,,0.20,0.000000,,2013-01-26 10:01:00,
2013-01-26 03:11:00,36.0,33.0,-100.00,East,94,6.0,12.0,90,0.00,,,0.20,0.000000,,2013-01-26 10:11:00,
2013-01-26 03:21:00,36.0,33.0,-100.00,East,94,6.0,12.0,90,0.00,,,0.20,0.000000,,2013-01-26 10:21:00,
2013-01-26 03:31:00,36.0,33.0,-100.00,East,94,6.0,12.0,90,0.00,,,0.20,0.000000,,2013-01-26 10:31:00,
2013-01-26 03:52:00,36.0,33.0,-100.00,East,100,9.0,14.0,89,0.00,,,0.20,0.000000,,2013-01-26 10:52:00,
2013-01-26 04:01:00,36.0,33.0,-100.00,East,100,9.0,14.0,89,0.00,,,0.20,0.000000,,2013-01-26 11:01:00,
2013-01-26 04:12:00,36.0,33.0,-100.00,East,100,9.0,14.0,89,0.00,,,0.20,0.000000,,2013-01-26 11:12:00,
2013-01-26 04:22:00,36.0,33.0,-100.00,East,100,9.0,14.0,89,0.00,,,0.20,0.000000,,2013-01-26 11:22:00,
2013-01-26 04:32:00,36.0,33.0,-100.00,East,100,9.0,14.0,89,0.00,,,0.20,0.000000,,2013-01-26 11:32:00,
2013-01-26 05:02:00,37.0,33.0,-100.00,ESE,113,7.0,19.0,84,0.00,,,0.20,0.000000,,2013-01-26 12:02:00,
2013-01-26 05:12:00,37.0,33.0,-100.00,ESE,113,7.0,19.0,84,0.00,,,0.20,0.000000,,2013-01-26 12:12:00,
2013-01-26 05:22:00,37.0,33.0,-100.00,ESE,113,7.0,19.0,84,0.00,,,0.20,0.000000,,2013-01-26 12:22:00,
2013-01-26 05:33:00,37.0,33.0,-100.00,ESE,113,7.0,19.0,84,0.00,,,0.20,0.000000,,2013-01-26 12:33:00,
2013-01-26 06:03:00,36.0,33.0,-100.00,ESE,102,7.0,13.0,88,0.01,,,0.21,0.000000,,2013-01-26 13:03:00,
2013-01-26 06:12:00,36.0,33.0,-100.00,ESE,102,7.0,13.0,88,0.01,,,0.21,0.000000,,2013-01-26 13:12:00,
2013-01-26 06:22:00,36.0,33.0,-100.00,ESE,102,7.0,13.0,88,0.01,,,0.21,0.000000,,2013-01-26 13:22:00,
2013-01-26 06:32:00,36.0,33.0,-100.00,ESE,102,7.0,13.0,88,0.01,,,0.21,0.000000,,2013-01-26 13:32:00,
2013-01-26 07:02:00,35.0,33.0,-100.00,East,85,4.0,10.0,92,0.01,,,0.22,0.000000,,2013-01-26 14:02:00,
2013-01-26 07:11:00,35.0,33.0,-100.00,East,85,4.0,10.0,92,0.01,,,0.22,0.000000,,2013-01-26 14:11:00,
2013-01-26 07:21:00,35.0,33.0,-100.00,East,85,4.0,10.0,92,0.01,,,0.22,0.000000,,2013-01-26 14:21:00,
2013-01-26 07:31:00,35.0,33.0,-100.00,East,85,4.0,10.0,92,0.01,,,0.22,0.000000,,2013-01-26 14:31:00,
2013-01-26 07:53:00,35.0,33.0,-100.00,ESE,106,8.0,14.0,92,0.00,,,0.22,0.000000,,2013-01-26 14:53:00,
2013-01-26 08:02:00,35.0,33.0,-100.00,ESE,106,8.0,14.0,92,0.00,,,0.22,0.000000,,2013-01-26 15:02:00,
2013-01-26 08:12:00,35.0,33.0,-100.00,ESE,106,8.0,14.0,92,0.00,,,0.22,0.000000,,2013-01-26 15:12:00,
2013-01-26 08:22:00,35.0,33.0,-100.00,ESE,106,8.0,14.0,92,0.00,,,0.22,0.000000,,2013-01-26 15:22:00,
2013-01-26 08:32:00,35.0,33.0,-100.00,ESE,106,8.0,14.0,92,0.00,,,0.22,0.000000,,2013-01-26 15:32:00,
2013-01-26 09:02:00,36.0,34.0,-100.00,East,99,7.0,13.0,93,0.00,,,0.22,9.000000,,2013-01-26 16:02:00,
2013-01-26 09:12:00,36.0,34.0,-100.00,East,99,7.0,13.0,93,0.00,,,0.22,9.000000,,2013-01-26 16:12:00,
2013-01-26 09:21:00,36.0,34.0,-100.00,East,99,7.0,13.0,93,0.00,,,0.22,9.000000,,2013-01-26 16:21:00,
2013-01-26 09:32:00,36.0,34.0,-100.00,East,99,7.0,13.0,93,0.00,,,0.22,9.000000,,2013-01-26 16:32:00,
2013-01-26 10:03:00,37.0,34.0,-100.00,East,96,6.0,13.0,89,0.01,,,0.23,41.000000,,2013-01-26 17:03:00,
2013-01-26 10:12:00,37.0,34.0,-100.00,East,96,6.0,13.0,89,0.01,,,0.23,41.000000,,2013-01-26 17:12:00,
2013-01-26 10:22:00,37.0,34.0,-100.00,East,96,6.0,13.0,89,0.01,,,0.23,41.000000,,2013-01-26 17:22:00,
2013-01-26 10:32:00,37.0,34.0,-100.00,East,96,6.0,13.0,89,0.01,,,0.23,41.000000,,2013-01-26 17:32:00,
2013-01-26 10:53:00,37.0,34.0,-100.00,East,97,11.0,18.0,89,0.04,,,0.26,60.000000,,2013-01-26 17:53:00,
2013-01-26 11:02:00,37.0,34.0,-100.00,East,97,11.0,18.0,89,0.04,,,0.26,60.000000,,2013-01-26 18:02:00,
2013-01-26 11:12:00,37.0,34.0,-100.00,East,97,11.0,18.0,89,0.04,,,0.26,60.000000,,2013-01-26 18:12:00,
2013-01-26 11:22:00,37.0,34.0,-100.00,East,97,11.0,18.0,89,0.04,,,0.26,60.000000,,2013-01-26 18:22:00,
2013-01-26 11:32:00,37.0,34.0,-100.00,East,97,11.0,18.0,89,0.04,,,0.26,60.000000,,2013-01-26 18:32:00,
2013-01-26 12:03:00,38.0,34.0,-100.00,ESE,107,4.0,19.0,87,0.00,,,0.25,125.000000,,2013-01-26 19:03:00,
2013-01-26 12:11:00,38.0,34.0,-100.00,ESE,107,4.0,19.0,87,0.00,,,0.25,125.000000,,2013-01-26 19:11:00,
2013-01-26 12:22:00,38.0,34.0,-100.00,ESE,107,4.0,19.0,87,0.00,,,0.25,125.000000,,2013-01-26 19:22:00,
2013-01-26 12:32:00,38.0,34.0,-100.00,ESE,107,4.0,19.0,87,0.00,,,0.25,125.000000,,2013-01-26 19:32:00,
2013-01-26 12:53:00,40.0,33.0,-100.00,SW,228,10.0,31.0,77,0.00,,,0.25,151.000000,,2013-01-26 19:53:00,
2013-01-26 13:02:00,40.0,33.0,-100.00,SW,228,10.0,31.0,77,0.00,,,0.25,151.000000,,2013-01-26 20:02:00,
2013-01-26 13:11:00,40.0,33.0,-100.00,SW,228,10.0,31.0,77,0.00,,,0.25,151.000000,,2013-01-26 20:11:00,
2013-01-26 13:21:00,40.0,33.0,-100.00,SW,228,10.0,31.0,77,0.00,,,0.25,151.000000,,2013-01-26 20:21:00,
2013-01-26 13:32:00,40.0,33.0,-100.00,SW,228,10.0,31.0,77,0.00,,,0.25,151.000000,,2013-01-26 20:32:00,
2013-01-26 13:52:00,44.0,33.0,-100.00,SSW,193,6.0,24.0,66,0.00,,,0.25,328.000000,,2013-01-26 20:52:00,
2013-01-26 14:02:00,44.0,33.0,-100.00,SSW,193,6.0,24.0,66,0.00,,,0.25,328.000000,,2013-01-26 21:02:00,
2013-01-26 14:52:00,38.0,34.0,-100.00,NNW,330,2.0,17.0,85,-99.99,,,0.27,101.000000,,2013-01-26 21:52:00,
2013-01-26 15:01:00,38.0,34.0,-100.00,NNW,330,2.0,17.0,85,-99.99,,,0.27,101.000000,,2013-01-26 22:01:00,
2013-01-26 15:11:00,38.0,34.0,-100.00,NNW,330,2.0,17.0,85,-99.99,,,0.27,101.000000,,2013-01-26 22:11:00,
2013-01-26 15:21:00,38.0,34.0,-100.00,NNW,330,2.0,17.0,85,-99.99,,,0.27,101.000000,,2013-01-26 22:21:00,
2013-01-26 15:31:00,38.0,34.0,-100.00,NNW,330,2.0,17.0,85,-99.99,,,0.27,101.000000,,2013-01-26 22:31:00,
2013-01-26 15:52:00,35.0,32.0,-100.00,NE,34,4.0,13.0,89,0.01,,,0.28,106.000000,,2013-01-26 22:52:00,
2013-01-26 16:01:00,35.0,32.0,-100.00,NE,34,4.0,13.0,89,0.01,,,0.28,106.000000,,2013-01-26 23:01:00,
2013-01-26 16:11:00,35.0,32.0,-100.00,NE,34,4.0,13.0,89,0.01,,,0.28,106.000000,,2013-01-26 23:11:00,
2013-01-26 16:21:00,35.0,32.0,-100.00,NE,34,4.0,13.0,89,0.01,,,0.28,106.000000,,2013-01-26 23:21:00,
2013-01-26 16:32:00,35.0,32.0,-100.00,NE,34,4.0,13.0,89,0.01,,,0.28,106.000000,,2013-01-26 23:32:00,
2013-01-26 17:02:00,31.0,29.0,-100.00,North,1,10.0,18.0,93,0.00,,,0.26,58.000000,,2013-01-27 00:02:00,
2013-01-26 17:11:00,31.0,29.0,-100.00,North,1,10.0,18.0,93,0.00,,,0.26,58.000000,,2013-01-27 00:11:00,
2013-01-26 17:21:00,31.0,29.0,-100.00,North,1,10.0,18.0,93,0.00,,,0.26,58.000000,,2013-01-27 00:21:00,
2013-01-26 17:31:00,31.0,29.0,-100.00,North,1,10.0,18.0,93,0.00,,,0.26,58.000000,,2013-01-27 00:31:00,
2013-01-26 18:01:00,29.0,27.0,-100.00,North,354,7.0,15.0,93,0.00,,,0.23,15.000000,,2013-01-27 01:01:00,
2013-01-26 18:11:00,29.0,27.0,-100.00,North,354,7.0,15.0,93,0.00,,,0.23,15.000000,,2013-01-27 01:11:00,
2013-01-26 18:22:00,29.0,27.0,-100.00,North,354,7.0,15.0,93,0.00,,,0.23,15.000000,,2013-01-27 01:22:00,
2013-01-26 18:32:00,29.0,27.0,-100.00,North,354,7.0,15.0,93,0.00,,,0.23,15.000000,,2013-01-27 01:32:00,
2013-01-26 18:52:00,28.0,27.0,-100.00,NNW,332,6.0,16.0,96,0.00,,,0.20,0.000000,,2013-01-27 01:52:00,
2013-01-26 19:01:00,28.0,27.0,-100.00,NNW,332,6.0,16.0,96,0.00,,,0.20,0.000000,,2013-01-27 02:01:00,
2013-01-26 19:11:00,28.0,27.0,-100.00,NNW,332,6.0,16.0,96,0.00,,,0.20,0.000000,,2013-01-27 02:11:00,
2013-01-26 19:21:00,28.0,27.0,-100.00,NNW,332,6.0,16.0,96,0.00,,,0.20,0.000000,,2013-01-27 02:21:00,
2013-01-26 19:31:00,28.0,27.0,-100.00,NNW,332,6.0,16.0,96,0.00,,,0.20,0.000000,,2013-01-27 02:31:00,
2013-01-26 20:01:00,28.0,27.0,-100.00,WNW,303,5.0,11.0,96,0.00,,,0.17,0.000000,,2013-01-27 03:01:00,
2013-01-26 20:11:00,28.0,27.0,-100.00,WNW,303,5.0,11.0,96,0.00,,,0.17,0.000000,,2013-01-27 03:11:00,
2013-01-26 20:21:00,28.0,27.0,-100.00,WNW,303,5.0,11.0,96,0.00,,,0.17,0.000000,,2013-01-27 03:21:00,
2013-01-26 20:31:00,28.0,27.0,-100.00,WNW,303,5.0,11.0,96,0.00,,,0.17,0.000000,,2013-01-27 03:31:00,
2013-01-26 21:01:00,28.0,27.0,-100.00,NW,326,5.0,9.0,96,0.00,,,0.13,0.000000,,2013-01-27 04:01:00,
2013-01-26 21:11:00,28.0,27.0,-100.00,NW,326,5.0,9.0,96,0.00,,,0.13,0.000000,,2013-01-27 04:11:00,
2013-01-26 21:21:00,28.0,27.0,-100.00,NW,326,5.0,9.0,96,0.00,,,0.13,0.000000,,2013-01-27 04:21:00,
2013-01-26 21:31:00,28.0,27.0,-100.00,NW,326,5.0,9.0,96,0.00,,,0.13,0.000000,,2013-01-27 04:31:00,
2013-01-26 21:52:00,27.0,26.0,-100.00,NW,316,4.0,7.0,96,0.00,,,0.11,0.000000,,2013-01-27 04:52:00,
2013-01-26 22:03:00,27.0,26.0,-100.00,NW,316,4.0,7.0,96,0.00,,,0.11,0.000000,,2013-01-27 05:03:00,
2013-01-26 22:12:00,27.0,26.0,-100.00,NW,316,4.0,7.0,96,0.00,,,0.11,0.000000,,2013-01-27 05:12:00,
2013-01-26 22:22:00,27.0,26.0,-100.00,NW,316,4.0,7.0,96,0.00,,,0.11,0.000000,,2013-01-27 05:22:00,
2013-01-26 22:31:00,27.0,26.0,-100.00,NW,316,4.0,7.0,96,0.00,,,0.11,0.000000,,2013-01-27 05:31:00,
2013-01-26 23:01:00,27.0,26.0,-100.00,NNW,334,2.0,8.0,95,0.00,,,0.11,0.000000,,2013-01-27 06:01:00,
2013-01-26 23:11:00,27.0,26.0,-100.00,NNW,334,2.0,8.0,95,0.00,,,0.11,0.000000,,2013-01-27 06:11:00,
2013-01-26 23:21:00,27.0,26.0,-100.00,NNW,334,2.0,8.0,95,0.00,,,0.11,0.000000,,2013-01-27 06:21:00,
2013-01-26 23:31:00,27.0,26.0,-100.00,NNW,334,2.0,8.0,95,0.00,,,0.11,0.000000,,2013-01-27 06:31:00,